Location: Bay Harbour
(38.2612°N, 75.2555°W)
Time: 02:04:33
(UTC+00:00)

Cosmos 1408 - Pass Details

Date: 29 October 2020
Orbit: 470 x 492 km, 82.6° (Epoch: 02 December)

Event Time Altitude Azimuth Distance (km) Brightness Sun altitude
Rises 22:57:31 0° 4° (N) 2,558 6.1 -11.0°
Reaches altitude 10° 22:59:50 10° 17° (NNE) 1,677 5.0 -11.4°
Maximum altitude 23:03:02 28° 78° (ENE) 941 3.4 -12.1°
Drops below altitude 10° 23:06:15 10° 139° (SE) 1,675 5.0 -12.7°
Sets 23:08:33 0° 151° (SSE) 2,554 6.0 -13.1°
